Regional Weather Roundup
Issued by NWS

Home | Current Version | Previous Version | Text Only | Print | Product List | Glossary On
Versions: 1 2 3 4 5 6 7 8 9 10 11 12 13 14 15 16 17 18 19 20 21 22 23 24 25 26 27 28 29 30 31 32 33 34 35 36 37 38 39 40 41 42 43 44 45 46 47 48 49 50
000
ASUS45 KSLC 302210
RWRUT

UTAH REGIONAL WEATHER ROUNDUP
NATIONAL WEATHER SERVICE SALT LAKE CITY UT
400 PM MDT TUE SEP 30 2014

UTZ001>011-023>025-302300-

NORTHERN UTAH

CITY           SKY/WX    TMP DP  RH WIND       PRES   REMARKS
HILL AFB       CLOUDY    58  46  63 S7        29.95S
LOGAN          NOT AVBL
OGDEN          CLOUDY    59  45  59 SW8       29.93F
PROVO AIRPORT  PTSUNNY   66  48  52 NW9       29.96R
SALT LAKE CITY CLOUDY    59  46  62 E5        29.93F
VERNAL         PTSUNNY   60  46  59 NE9       29.91F
WENDOVER       PTSUNNY   63  45  51 SE9       29.92F
HEBER CITY     LGT RAIN  52  41  66 NW13      29.99R
WEST JORDAN    CLOUDY    55  48  76 E7        29.96F

$$

UTZ012>022-026-027-302300-

SOUTHERN UTAH

CITY           SKY/WX    TMP DP  RH WIND       PRES   REMARKS
BRYCE CANYON   SUNNY     60  34  37 N12       30.05F
CEDAR CITY     SUNNY     68  30  24 VRB3      29.96F
MILFORD        SUNNY     69  38  32 S8        29.93F
MOAB/CYNLANDS  SUNNY     68  40  35 W7        29.89F
PRICE          MOSUNNY   61  41  47 S5        29.95F
ST GEORGE      CLOUDY    81  37  21 SW14      29.85F
KANAB            N/A     72  34  25 SW12      29.96F

$$

REGIONAL REPORTS     COLORADO/ARIZONA

CITY           SKY/WX    TMP DP  RH WIND       PRES   REMARKS
CRAIG, CO      LGT RAIN  48  42  80 W13       29.97R
GRAND JUNCTION MOSUNNY   63  43  48 W5        29.92F
RIFLE          CLOUDY    60  41  49 W15       29.93F
MONTROSE       PTSUNNY   61  43  51 N7        29.97F
CORTEZ         SUNNY     65  37  35 W13       29.99F
PAGE, AZ       NOT AVBL
GRAND CANYON   SUNNY     65  34  31 VRB7      30.05F
KINGMAN        SUNNY     80  36  20 S7        29.89F
FLAGSTAFF      SUNNY     65  35  33 SW10      30.07F

$$

REGIONAL REPORTS    NEVADA/IDAHO/WYOMING

CITY           SKY/WX    TMP DP  RH WIND       PRES   REMARKS
LAS VEGAS, NV  MOSUNNY   85  35  16 VRB6      29.76F
ELY            MOSUNNY   65  32  29 W15G22    29.98F
ELKO           MOSUNNY   63  39  41 NW14      29.95F
POCATELLO, ID  PTSUNNY   60  35  39 W28G36    29.90F
BURLEY           N/A     58  41  53 W18G29    29.92F
EVANSTON, WY   CLOUDY    48  39  71 SW14      29.99S
ROCK SPRINGS   PTSUNNY   54  42  64 W21       29.92F

$$



USA.gov is the U.S. government's official web portal to all federal, state and local government web resources and services.